Printer-friendly version

IAU Minor Planet Center

Minor Planet Center

MPEC 2008-E119: 2008 ED85

The following Minor Planet Electronic Circular may be linked-to from your own Web pages, but must not otherwise be redistributed electronically.


Read MPEC 2008-E118 Read MPEC 2008-E120


M.P.E.C. 2008-E119                               Issued 2008 Mar. 15, 11:42 UT

     The Minor Planet Electronic Circulars contain information on unusual
         minor planets and routine data on comets.  They are published
   on behalf of Commission 20 of the International Astronomical Union by the
          Minor Planet Center, Smithsonian Astrophysical Observatory,
                          Cambridge, MA 02138, U.S.A.

             Prepared using the Tamkin Foundation Computer Network

                              MPC@CFA.HARVARD.EDU
          URL http://www.cfa.harvard.edu/iau/mpc.html  ISSN 1523-6714

                                   2008 ED85

Observations:
     K08E85D* C2008 03 13.30333 10 26 28.46 +06 07 11.8          19.5 V EE119G96
     K08E85D  C2008 03 13.30387 10 26 29.14 +06 06 34.7          19.5 V EE119G96
     K08E85D  C2008 03 13.30440 10 26 29.86 +06 05 56.5          20.1 V EE119G96
     K08E85D  C2008 03 13.30494 10 26 30.51 +06 05 18.7          20.3 V EE119G96
     K08E85D  C2008 03 13.31898 10 26 46.96 +05 49 10.6                 EE119G96
     K08E85D  C2008 03 13.31953 10 26 47.65 +05 48 32.8          20.1 V EE119G96
     K08E85D  C2008 03 13.32008 10 26 48.30 +05 47 54.5          20.1 V EE119G96
     K08E85D  C2008 03 13.32061 10 26 48.97 +05 47 16.6          20.6 V EE119G96
     K08E85D  C2008 03 13.40767 10 28 41.87 +04 02 26.4                 EE119G96
     K08E85D  C2008 03 13.40855 10 28 43.13 +04 01 15.4                 EE119G96
     K08E85D  C2008 03 13.40944 10 28 44.29 +04 00 20.3          20.0 V EE119G96
     K08E85D  C2008 03 13.41032 10 28 45.70 +03 59 10.8                 EE119G96

Observer details:
G96 Mt. Lemmon Survey.  Observer R. E. Hill.  Measurers E. C. Beshore,
    A. Boattini, G. J. Garradd, A. R. Gibbs, A. D. Grauer, R. E. Hill,
    R. A. Kowalski, S. M. Larson, R. H. McNaught.  1.5-m reflector + CCD.

Orbital elements:
2008 ED85                                                Earth MOID = 0.0041 AU
Epoch 2008 May 14.0 TT = JDT 2454600.5                  MPC
M  21.76006              (2000.0)            P               Q
n   0.54166754     Peri.  205.52324     -0.95107039     +0.30878920
a   1.4904389      Node   352.43938     -0.26772316     -0.84087538
e   0.3448572      Incl.    4.66146     -0.15423818     -0.44449728
P   1.82           H   29.9           G   0.15           U   9
Residuals in seconds of arc
080313 G96  1.3-  1.0+    080313 G96  0.5-  0.2+    080313 G96  0.1+  1.2-
080313 G96  0.6-  0.9+    080313 G96  0.0   0.6+    080313 G96 (0.3+  6.3-)
080313 G96  0.9+  0.9-    080313 G96  0.1-  0.6+    080313 G96 (1.4-  5.4+)
080313 G96  1.2+  1.7-    080313 G96  0.5+  0.4-    080313 G96  0.9+  1.9+

Ephemeris:
2008 ED85                a,e,i = 1.49, 0.34, 5                   q = 0.9765
Date    TT    R. A. (2000) Decl.     Delta      r     Elong.  Phase     V
2008 03 13.0  10 19.45   +11 20.8    0.00787  1.001   159.9    20.0    20.4
2008 03 13.1  10 21.68   +09 48.9    0.00757  1.001   160.9    19.0    20.3
2008 03 13.2  10 24.06   +08 09.2    0.00727  1.001   161.8    18.0    20.1
2008 03 13.3  10 26.63   +06 21.1    0.00698  1.001   162.8    17.1    20.0
2008 03 13.4  10 29.41   +04 23.7    0.00670  1.001   163.7    16.2    19.9
2008 03 13.5  10 32.40   +02 16.0    0.00642  1.000   164.4    15.5    19.8
2008 03 13.6  10 35.65   -00 02.8    0.00616  1.000   164.8    15.1    19.7
2008 03 13.7  10 39.19   -02 33.8    0.00591  1.000   165.0    15.0    19.6
2008 03 13.8  10 43.04   -05 17.7    0.00567  1.000   164.6    15.3    19.5
2008 03 13.9  10 47.26   -08 15.3    0.00545  0.999   163.7    16.2    19.5
2008 03 14.0  10 51.90   -11 27.1    0.00525  0.999   162.1    17.8    19.4
2008 03 14.1  10 57.01   -14 53.4    0.00506  0.999   160.0    19.9    19.4
2008 03 14.2  11 02.68   -18 33.8    0.00490  0.999   157.3    22.6    19.4
2008 03 14.3  11 08.98   -22 27.5    0.00476  0.999   154.2    25.7    19.5
2008 03 14.4  11 16.02   -26 32.8    0.00465  0.998   150.6    29.3    19.5
2008 03 14.5  11 23.92   -30 47.2    0.00456  0.998   146.7    33.1    19.6
2008 03 14.6  11 32.82   -35 07.5    0.00451  0.998   142.6    37.3    19.7
2008 03 14.7  11 42.92   -39 29.5    0.00448  0.998   138.3    41.6    19.8
2008 03 14.8  11 54.40   -43 48.8    0.00449  0.998   133.9    45.9    19.9
2008 03 14.9  12 07.52   -48 00.5    0.00453  0.997   129.5    50.3    20.0
2008 03 15.0  12 22.53   -51 59.9    0.00460  0.997   125.2    54.6    20.2
2008 03 15.1  12 39.74   -55 42.8    0.00470  0.997   121.0    58.8    20.4
2008 03 15.2  12 59.41   -59 05.3    0.00482  0.997   117.0    62.8    20.5
2008 03 15.3  13 21.76   -62 04.1    0.00497  0.997   113.2    66.6    20.7
2008 03 15.4  13 46.88   -64 36.9    0.00515  0.996   109.6    70.1    20.9
2008 03 15.5  14 14.59   -66 42.1    0.00534  0.996   106.3    73.4    21.1
2008 03 15.6  14 44.40   -68 19.1    0.00555  0.996   103.2    76.5    21.3
2008 03 15.7  15 15.47   -69 28.5    0.00578  0.996   100.4    79.3    21.5
2008 03 15.8  15 46.70   -70 12.3    0.00602  0.996    97.8    81.9    21.7
2008 03 15.9  16 16.98   -70 33.5    0.00628  0.995    95.4    84.2    21.8
2008 03 16.0  16 45.37   -70 36.0    0.00655  0.995    93.2    86.4    22.0

Timothy B. Spahr             (C) Copyright 2008 MPC           M.P.E.C. 2008-E119

Read MPEC 2008-E118 Read MPEC 2008-E120


Our Web policy. Index to the CBAT/MPC/ICQ pages.


Valid HTML 4.01!